Time,TemperatureF,DewpointF,PressureIn,WindDirection,WindDirectionDegrees,WindSpeedMPH,WindSpeedGustMPH,Humidity,HourlyPrecipIn,Conditions,Clouds,dailyrainin,SoftwareType,DateUTC
2013-06-19 00:08:00,55.7,46.0,30.00,WNW,301,20.0,-999.0,69,-99.99,,,0.00,weatherlink.com 1.10,2013-06-19 07:08:00,
2013-06-19 00:23:00,54.9,46.0,30.00,NW,317,9.0,-999.0,72,-99.99,,,0.00,weatherlink.com 1.10,2013-06-19 07:23:00,
2013-06-19 00:38:00,54.5,46.0,30.00,WNW,303,10.0,-999.0,73,-99.99,,,0.00,weatherlink.com 1.10,2013-06-19 07:38:00,
2013-06-19 00:53:00,54.4,46.0,30.01,West,271,10.0,-999.0,73,-99.99,,,0.00,weatherlink.com 1.10,2013-06-19 07:53:00,
2013-06-19 01:08:00,54.4,46.0,30.01,NW,323,15.0,-999.0,72,-99.99,,,0.00,weatherlink.com 1.10,2013-06-19 08:08:00,
2013-06-19 01:23:00,54.3,45.0,30.01,NW,325,16.0,-999.0,72,-99.99,,,0.00,weatherlink.com 1.10,2013-06-19 08:23:00,
2013-06-19 01:38:00,54.6,45.0,30.01,SW,236,7.0,-999.0,70,-99.99,,,0.00,weatherlink.com 1.10,2013-06-19 08:38:00,
2013-06-19 01:53:00,54.5,45.0,30.00,WNW,291,9.0,-999.0,70,-99.99,,,0.00,weatherlink.com 1.10,2013-06-19 08:53:00,
2013-06-19 02:08:00,54.4,45.0,29.99,NW,307,10.0,-999.0,71,-99.99,,,0.00,weatherlink.com 1.10,2013-06-19 09:08:00,
2013-06-19 02:23:00,54.6,45.0,29.99,NNW,333,17.0,-999.0,69,-99.99,,,0.00,weatherlink.com 1.10,2013-06-19 09:23:00,
2013-06-19 02:38:00,55.1,45.0,29.98,NW,311,21.0,-999.0,68,-99.99,,,0.00,weatherlink.com 1.10,2013-06-19 09:38:00,
2013-06-19 02:53:00,55.5,44.0,29.97,NNW,327,11.0,-999.0,66,-99.99,,,0.00,weatherlink.com 1.10,2013-06-19 09:53:00,
2013-06-19 03:08:00,56.0,44.0,29.98,NW,323,20.0,-999.0,65,-99.99,,,0.00,weatherlink.com 1.10,2013-06-19 10:08:00,
2013-06-19 03:23:00,56.4,44.0,29.98,NW,309,12.0,-999.0,63,-99.99,,,0.00,weatherlink.com 1.10,2013-06-19 10:23:00,
2013-06-19 03:38:00,56.4,44.0,29.98,WNW,289,15.0,-999.0,64,-99.99,,,0.00,weatherlink.com 1.10,2013-06-19 10:38:00,
2013-06-19 03:52:00,55.5,45.0,29.99,NNW,331,11.0,-999.0,67,-99.99,,,0.00,weatherlink.com 1.10,2013-06-19 10:52:00,
2013-06-19 04:08:00,55.2,45.0,29.99,NNW,344,12.0,-999.0,68,-99.99,,,0.00,weatherlink.com 1.10,2013-06-19 11:08:00,
2013-06-19 04:23:00,55.5,45.0,30.01,WNW,290,17.0,-999.0,67,-99.99,,,0.00,weatherlink.com 1.10,2013-06-19 11:23:00,
2013-06-19 04:38:00,55.1,45.0,30.00,North,355,6.0,-999.0,68,-99.99,,,0.00,weatherlink.com 1.10,2013-06-19 11:38:00,
2013-06-19 04:53:00,54.3,45.0,30.01,East,101,5.0,-999.0,70,-99.99,,,0.00,weatherlink.com 1.10,2013-06-19 11:53:00,
2013-06-19 05:08:00,54.5,44.0,30.01,NW,316,5.0,-999.0,69,-99.99,,,0.00,weatherlink.com 1.10,2013-06-19 12:08:00,
2013-06-19 05:23:00,54.3,45.0,30.00,NNE,16,10.0,-999.0,70,-99.99,,,0.00,weatherlink.com 1.10,2013-06-19 12:23:00,
2013-06-19 05:38:00,53.9,45.0,30.01,NE,36,6.0,-999.0,72,-99.99,,,0.00,weatherlink.com 1.10,2013-06-19 12:38:00,
2013-06-19 05:53:00,53.6,45.0,30.01,NNW,341,2.0,-999.0,73,-99.99,,,0.00,weatherlink.com 1.10,2013-06-19 12:53:00,
2013-06-19 06:08:00,53.6,45.0,30.01,WNW,290,2.0,-999.0,73,-99.99,,,0.00,weatherlink.com 1.10,2013-06-19 13:08:00,
2013-06-19 06:23:00,53.7,46.0,30.01,NW,311,13.0,-999.0,74,-99.99,,,0.00,weatherlink.com 1.10,2013-06-19 13:23:00,
2013-06-19 06:38:00,54.2,46.0,30.02,NNW,335,10.0,-999.0,73,-99.99,,,0.00,weatherlink.com 1.10,2013-06-19 13:38:00,
2013-06-19 06:53:00,54.6,46.0,30.02,WSW,245,5.0,-999.0,72,-99.99,,,0.00,weatherlink.com 1.10,2013-06-19 13:53:00,
2013-06-19 07:08:00,55.1,45.0,30.02,NW,307,10.0,-999.0,70,-99.99,,,0.00,weatherlink.com 1.10,2013-06-19 14:08:00,
2013-06-19 07:23:00,55.6,46.0,30.02,WNW,290,10.0,-999.0,69,-99.99,,,0.00,weatherlink.com 1.10,2013-06-19 14:23:00,
2013-06-19 07:38:00,56.2,46.0,30.04,NW,307,15.0,-999.0,68,-99.99,,,0.00,weatherlink.com 1.10,2013-06-19 14:38:00,
2013-06-19 07:52:00,56.6,46.0,30.04,NW,319,9.0,-999.0,67,-99.99,,,0.00,weatherlink.com 1.10,2013-06-19 14:52:00,
2013-06-19 08:08:00,56.8,45.0,30.04,WNW,288,5.0,-999.0,66,-99.99,,,0.00,weatherlink.com 1.10,2013-06-19 15:08:00,
2013-06-19 08:23:00,57.5,47.0,30.04,NNW,345,1.0,-999.0,67,-99.99,,,0.00,weatherlink.com 1.10,2013-06-19 15:23:00,
2013-06-19 08:38:00,58.2,46.0,30.04,North,360,2.0,-999.0,64,-99.99,,,0.00,weatherlink.com 1.10,2013-06-19 15:38:00,
2013-06-19 08:53:00,59.0,45.0,30.04,NNW,335,7.0,-999.0,61,-99.99,,,0.00,weatherlink.com 1.10,2013-06-19 15:53:00,
2013-06-19 09:08:00,60.1,46.0,30.05,West,280,7.0,-999.0,60,-99.99,,,0.00,weatherlink.com 1.10,2013-06-19 16:08:00,
2013-06-19 09:23:00,60.6,46.0,30.05,WNW,284,2.0,-999.0,58,-99.99,,,0.00,weatherlink.com 1.10,2013-06-19 16:23:00,
2013-06-19 09:38:00,61.9,46.0,30.05,NW,306,5.0,-999.0,57,-99.99,,,0.00,weatherlink.com 1.10,2013-06-19 16:38:00,
2013-06-19 09:53:00,62.4,46.0,30.04,North,5,4.0,-999.0,56,-99.99,,,0.00,weatherlink.com 1.10,2013-06-19 16:53:00,
2013-06-19 10:08:00,62.5,46.0,30.05,NW,312,5.0,-999.0,56,-99.99,,,0.00,weatherlink.com 1.10,2013-06-19 17:08:00,
2013-06-19 10:23:00,63.2,47.0,30.05,NW,317,4.0,-999.0,55,-99.99,,,0.00,weatherlink.com 1.10,2013-06-19 17:23:00,
2013-06-19 10:38:00,64.4,47.0,30.04,SSE,164,0.0,-999.0,54,-99.99,,,0.00,weatherlink.com 1.10,2013-06-19 17:38:00,
2013-06-19 11:08:00,65.8,48.0,30.05,NW,321,4.0,-999.0,52,-99.99,,,0.00,weatherlink.com 1.10,2013-06-19 18:08:00,
2013-06-19 11:23:00,66.5,47.0,30.05,West,267,4.0,-999.0,50,-99.99,,,0.00,weatherlink.com 1.10,2013-06-19 18:23:00,
2013-06-19 11:38:00,68.4,48.0,30.05,WSW,254,0.0,-999.0,49,-99.99,,,0.00,weatherlink.com 1.10,2013-06-19 18:38:00,
2013-06-19 11:52:00,69.8,49.0,30.05,East,94,0.0,-999.0,48,-99.99,,,0.00,weatherlink.com 1.10,2013-06-19 18:52:00,
2013-06-19 12:08:00,69.8,49.0,30.05,ESE,117,6.0,-999.0,47,-99.99,,,0.00,weatherlink.com 1.10,2013-06-19 19:08:00,
2013-06-19 12:23:00,70.2,49.0,30.05,ENE,78,3.0,-999.0,47,-99.99,,,0.00,weatherlink.com 1.10,2013-06-19 19:23:00,
2013-06-19 12:38:00,70.0,48.0,30.04,SSW,213,1.0,-999.0,46,-99.99,,,0.00,weatherlink.com 1.10,2013-06-19 19:38:00,
2013-06-19 12:53:00,72.4,50.0,30.04,West,280,4.0,-999.0,45,-99.99,,,0.00,weatherlink.com 1.10,2013-06-19 19:53:00,
2013-06-19 13:08:00,72.1,50.0,30.04,West,278,9.0,-999.0,45,-99.99,,,0.00,weatherlink.com 1.10,2013-06-19 20:08:00,
2013-06-19 13:23:00,71.1,48.0,30.04,West,268,5.0,-999.0,44,-99.99,,,0.00,weatherlink.com 1.10,2013-06-19 20:23:00,
2013-06-19 13:38:00,71.6,50.0,30.03,WNW,288,0.0,-999.0,46,-99.99,,,0.00,weatherlink.com 1.10,2013-06-19 20:38:00,
2013-06-19 13:53:00,71.6,50.0,30.03,West,271,5.0,-999.0,46,-99.99,,,0.00,weatherlink.com 1.10,2013-06-19 20:53:00,
2013-06-19 14:08:00,71.5,50.0,30.03,SW,226,7.0,-999.0,46,-99.99,,,0.00,weatherlink.com 1.10,2013-06-19 21:08:00,
2013-06-19 14:23:00,70.5,49.0,30.02,NNW,335,12.0,-999.0,47,-99.99,,,0.00,weatherlink.com 1.10,2013-06-19 21:23:00,
2013-06-19 14:38:00,71.1,49.0,30.02,NW,318,7.0,-999.0,45,-99.99,,,0.00,weatherlink.com 1.10,2013-06-19 21:38:00,
2013-06-19 14:53:00,71.1,48.0,30.02,NNW,327,9.0,-999.0,44,-99.99,,,0.00,weatherlink.com 1.10,2013-06-19 21:53:00,
2013-06-19 15:08:00,70.8,47.0,30.02,WNW,295,7.0,-999.0,43,-99.99,,,0.00,weatherlink.com 1.10,2013-06-19 22:08:00,
2013-06-19 15:23:00,70.7,48.0,30.01,WNW,300,13.0,-999.0,45,-99.99,,,0.00,weatherlink.com 1.10,2013-06-19 22:23:00,
2013-06-19 15:38:00,69.6,48.0,30.01,NW,319,10.0,-999.0,46,-99.99,,,0.00,weatherlink.com 1.10,2013-06-19 22:38:00,
2013-06-19 15:52:00,69.9,48.0,30.01,West,261,7.0,-999.0,46,-99.99,,,0.00,weatherlink.com 1.10,2013-06-19 22:52:00,
2013-06-19 16:08:00,70.1,48.0,30.01,North,360,5.0,-999.0,46,-99.99,,,0.00,weatherlink.com 1.10,2013-06-19 23:08:00,
2013-06-19 16:23:00,69.6,48.0,30.00,WNW,298,15.0,-999.0,47,-99.99,,,0.00,weatherlink.com 1.10,2013-06-19 23:23:00,
2013-06-19 16:38:00,68.8,48.0,30.00,NW,318,19.0,-999.0,48,-99.99,,,0.00,weatherlink.com 1.10,2013-06-19 23:38:00,
2013-06-19 16:53:00,68.3,48.0,30.00,NW,307,9.0,-999.0,48,-99.99,,,0.00,weatherlink.com 1.10,2013-06-19 23:53:00,
2013-06-19 17:08:00,68.2,47.0,30.00,NW,313,10.0,-999.0,47,-99.99,,,0.00,weatherlink.com 1.10,2013-06-20 00:08:00,
2013-06-19 17:23:00,67.8,47.0,30.00,NW,326,11.0,-999.0,48,-99.99,,,0.00,weatherlink.com 1.10,2013-06-20 00:23:00,
2013-06-19 17:38:00,67.7,47.0,29.99,NW,314,9.0,-999.0,47,-99.99,,,0.00,weatherlink.com 1.10,2013-06-20 00:38:00,
2013-06-19 17:53:00,67.2,46.0,29.99,WNW,298,3.0,-999.0,47,-99.99,,,0.00,weatherlink.com 1.10,2013-06-20 00:53:00,
2013-06-19 18:08:00,66.1,46.0,29.99,NW,321,13.0,-999.0,49,-99.99,,,0.00,weatherlink.com 1.10,2013-06-20 01:08:00,
2013-06-19 18:38:00,65.1,45.0,29.98,NNW,343,7.0,-999.0,49,-99.99,,,0.00,weatherlink.com 1.10,2013-06-20 01:38:00,
2013-06-19 18:53:00,64.6,45.0,29.98,NW,309,18.0,-999.0,49,-99.99,,,0.00,weatherlink.com 1.10,2013-06-20 01:53:00,
2013-06-19 19:08:00,63.8,44.0,29.98,West,279,2.0,-999.0,49,-99.99,,,0.00,weatherlink.com 1.10,2013-06-20 02:08:00,
2013-06-19 19:23:00,62.6,45.0,29.99,West,261,13.0,-999.0,52,-99.99,,,0.00,weatherlink.com 1.10,2013-06-20 02:23:00,
2013-06-19 19:38:00,61.0,45.0,29.99,NNW,334,29.0,-999.0,55,-99.99,,,0.00,weatherlink.com 1.10,2013-06-20 02:38:00,
2013-06-19 19:53:00,59.3,44.0,29.99,WNW,303,20.0,-999.0,57,-99.99,,,0.00,weatherlink.com 1.10,2013-06-20 02:53:00,
2013-06-19 20:08:00,59.0,44.0,29.98,NW,311,17.0,-999.0,58,-99.99,,,0.00,weatherlink.com 1.10,2013-06-20 03:08:00,
2013-06-19 20:23:00,59.0,43.0,29.98,WNW,296,21.0,-999.0,56,-99.99,,,0.00,weatherlink.com 1.10,2013-06-20 03:23:00,
2013-06-19 20:38:00,59.7,43.0,29.99,NNW,331,11.0,-999.0,54,-99.99,,,0.00,weatherlink.com 1.10,2013-06-20 03:38:00,
2013-06-19 20:53:00,59.6,44.0,29.99,NNW,333,10.0,-999.0,56,-99.99,,,0.00,weatherlink.com 1.10,2013-06-20 03:53:00,
2013-06-19 21:08:00,59.0,44.0,29.99,WNW,286,18.0,-999.0,59,-99.99,,,0.00,weatherlink.com 1.10,2013-06-20 04:08:00,
2013-06-19 21:23:00,59.9,45.0,29.99,NW,304,12.0,-999.0,58,-99.99,,,0.00,weatherlink.com 1.10,2013-06-20 04:23:00,
2013-06-19 21:38:00,60.4,45.0,30.00,NW,306,10.0,-999.0,58,-99.99,,,0.00,weatherlink.com 1.10,2013-06-20 04:38:00,
2013-06-19 21:53:00,60.2,46.0,30.00,NW,323,19.0,-999.0,60,-99.99,,,0.00,weatherlink.com 1.10,2013-06-20 04:53:00,
2013-06-19 22:08:00,59.6,46.0,30.00,NW,317,10.0,-999.0,62,-99.99,,,0.00,weatherlink.com 1.10,2013-06-20 05:08:00,
2013-06-19 22:23:00,59.7,46.0,30.01,NW,309,5.0,-999.0,61,-99.99,,,0.00,weatherlink.com 1.10,2013-06-20 05:23:00,
2013-06-19 22:38:00,59.0,46.0,30.01,West,271,5.0,-999.0,62,-99.99,,,0.00,weatherlink.com 1.10,2013-06-20 05:38:00,
2013-06-19 22:53:00,59.0,46.0,30.01,West,281,4.0,-999.0,62,-99.99,,,0.00,weatherlink.com 1.10,2013-06-20 05:53:00,
2013-06-19 23:08:00,59.0,45.0,30.01,NW,320,9.0,-999.0,61,-99.99,,,0.00,weatherlink.com 1.10,2013-06-20 06:08:00,
2013-06-19 23:23:00,59.3,46.0,30.00,NE,51,2.0,-999.0,61,-99.99,,,0.00,weatherlink.com 1.10,2013-06-20 06:23:00,
2013-06-19 23:38:00,59.0,45.0,30.00,NNW,329,6.0,-999.0,61,-99.99,,,0.00,weatherlink.com 1.10,2013-06-20 06:38:00,
2013-06-19 23:52:00,58.8,46.0,30.00,NNW,340,9.0,-999.0,62,-99.99,,,0.00,weatherlink.com 1.10,2013-06-20 06:52:00,